Home > Time Zones > World Clock > Weather > China > Hefei > Past weeks

Flag Weather past 2 weeks in Hefei, Anhui, China

Now
55 °F

Fog.


Feels Like: 54 °F
Forecast: 50 / 55 °F
Wind: 6 mph from Northwest

Location: Hefei Airport

Current Time: Nov 23, 2014 at 8:00:38 AM

Latest Report: Nov 23, 2014 at 7:00 AM


Visibility: 1 mi

Pressure: 30.12 "Hg

Humidity: 94%

Dew point: 54 °F

Location of HefeiLocation

Historic Weather in Hefei — Graph

°F

Hefei temperature yesterday

Maximum temperature yesterday: 68 °F (at 1:00 PM)
Minimum temperature yesterday: 52 °F (at 3:00 AM)
Average temperature yesterday: 59 °F

Past Weeks' High & Low Weather Summary

 TemperatureHumidityPressure
High68 °F (Nov 21, 1:00 PM)100% (Nov 8, 7:00 AM)30.51 "Hg (Nov 8, 7:00 AM)
Low36 °F (Nov 18, 7:00 AM)23% (Nov 13, 12:00 PM)30.07 "Hg (Nov 11, 2:00 PM)
Average52 °F72%30.27 "Hg
* Reported Nov 8 7:00 AM — Nov 23 7:00 AM, Hefei, Weather by CustomWeather, © 2014

Note: Actual official high and low records may vary slightly from our data, if they occured in-between our weather recording intervals... More about our weather records

Advertising

Hefei weather history for previous 24 hours

 ConditionsComfort  
Time TempWeatherWind HumidityBarometerVisibility
7:00 AM
Nov 23
55 °FFog.6 mph94%30.12 "Hg1 mi
6:00 AM55 °FFog.6 mph94%30.09 "Hg1 mi
5:00 AM55 °FFog.1 mph94%30.09 "Hg1 mi
4:00 AM55 °FFog.1 mph94%30.09 "Hg1 mi
3:00 AM55 °FFog.6 mph94%30.09 "Hg1 mi
2:00 AM57 °FFog.10 mph88%30.09 "Hg1 mi
1:00 AM57 °FFog.8 mph88%30.12 "Hg1 mi
12:00 AM57 °FFog.10 mph88%30.15 "Hg1 mi
11:00 PM
Nov 22
57 °FFog.8 mph88%30.15 "Hg1 mi
10:00 PM59 °FFog.8 mph82%30.15 "Hg1 mi
9:00 PM59 °FFog.6 mph82%30.15 "Hg1 mi
8:00 PM59 °FFog.8 mph82%30.15 "Hg1 mi
7:00 PM59 °FFog.10 mph77%30.12 "Hg1 mi
6:00 PM59 °FFog.6 mph77%30.12 "Hg1 mi
5:00 PM63 °FHaze.6 mph64%30.09 "Hg1 mi
4:00 PM68 °FHaze.8 mph53%30.09 "Hg1 mi
3:00 PM68 °FHaze.6 mph49%30.09 "Hg1 mi
2:00 PM68 °FHaze.6 mph49%30.09 "Hg1 mi
1:00 PM68 °FHaze.6 mph49%30.12 "Hg1 mi
12:00 PM64 °FHaze.3 mph52%30.15 "Hg1 mi
11:00 AM63 °FHaze.6 mph59%30.18 "Hg1 mi
10:00 AM61 °FHaze.3 mph63%30.18 "Hg1 mi
9:00 AM59 °FClear.No wind63%30.18 "Hg1 mi
8:00 AM55 °FClear.1 mph77%30.18 "Hg1 mi
Weather by CustomWeather, © 2014

See weather overviewHow to use our weather pages